CZ-6A DEB, 54623

Orbit data source: Space-Track

CZ-6A DEB, 54623 is space debris in SSO originally from a launch on Fri, 11 Nov 2022 UTC launched from the Taiyaun Space Center, China (TSC). Debris objects in space refer to the collection of defunct objects orbiting the Earth. Examples of debris include non-operational satellites, rocket bodies, and fragments generated from explosions, collisions, or faulty payload assembly.

Loading next visibility...
Identifier
54623, 2022-151NZ
Orbit
SSO
Country
Flag of CNCN / PRC
Related business
Manufacturer
SAST
Mission
Spacecraft
Bus & Motor
Unknown
Mass
Unknown
Launch date (UTC)
2022-11-11 (3 years ago)
Launch vehicle
Unknown
Launch site
Taiyaun Space Center, China (TSC)
Object type
Payload
Rocket body
Debris
Shape & HBR
Unknown shape, 0.2 m
Radar Cross Section
Small (<0.1 m²)

Expand to show TLE details & history
Last TLE update: 10 hours ago

TLE from 10 hours ago
0 CZ-6A DEB
1 54623U 22151NZ  25353.23491804  .00000673  00000-0  38524-3 0  9991
2 54623  98.8410 355.2349 0043593 121.3328 239.2122 14.12385224158497
Epoch: 2025-12-19T05:38Z
TLE epoch observation values (Epoch: 2025-12-19T05:38:16.918Z)
Latitude
-0.00001°
Longitude
-177.41458°
Altitude
870.356 km
Speed
7.409 km/s
True Right ascension
23h 40m 56s
True Declination
0° 00' 00"
Sunlit
Object was in daylight at epoch
Visualization orbit readout
Latitude
Unknown
Longitude
Unknown
Altitude
Unknown
Speed
Unknown
Apparent Right ascension
Unknown
Apparent Declination
Unknown
Sunlit
N/A
Visualization observer readout
Local Sidereal Time
15:01:31
Azimuth
Unknown
Elevation
Unknown
Doppler factor
Unknown
Orbital elements
Apogee altitude
879.899 km
Perigee altitude
816.893 km
Semi-major axis
7,226.533 km
Eccentricity
0.00436
Inclination
98.841°
RAAN
355.2349°
Arg. of periapsis
121.3328°
True anomaly
238.78426°
Mean anomaly
239.2122°
Eccentric anomaly
238.99811°
Mean motion
3.53304 °/min
Orbital period
101.9 mins
BSTAR
0.00038524
Loading maneuver chart data...
Computing Atmospheric mass density...

Documentation

Showing up to 5 results
|